AirNav   Everest Fuels
 
 1206 users online  

78K Yes Bay Lodge Seaplane Base
Yes Bay, Alaska, USA

GOING TO YES BAY?


FAA INFORMATION EFFECTIVE 10 SEPTEMBER 2020

Location

FAA Identifier: 78K
Lat/Long: 55-54-58.6850N 131-48-04.0810W
55-54.978083N 131-48.068017W
55.9163014,-131.8011336
(estimated)
Elevation: 0 ft. / 0 m (estimated)
Variation: 26E (1985)
Time zone: UTC -8 (UTC -9 during Standard Time)
Zip code: 99901

Seaplane Base Operations

Seaplane Base use: Open to the public
Control tower: no
ARTCC: ANCHORAGE CENTER
FSS: KETCHIKAN FLIGHT SERVICE STATION [907-225-9481]
Alternate FSS: JNU JUNEAU FLIGHT SERVICE STATION [1-866-297-2236]
NOTAMs facility: KTN (NOTAM-D service available)
Attendance: SUMMER DAYLIGHT HOURS
Wind indicator: no
Segmented circle: no

Seaplane Base Communications

CTAF: 122.9

Nearby radio navigation aids

NDB name  Hdg/Dist  Freq  Var  ID
CLAM COVE333/34.639621ECMJ -.-. -- .---

Seaplane Base Services

Bottled oxygen: NONE
Bulk oxygen: NONE

Runway Information

Runway E/W

Dimensions: 5000 x 2000 ft. / 1524 x 610 m
Surface: water
RUNWAY E  RUNWAY W
Elevation: 0.0 ft.0.0 ft.
Traffic pattern: leftleft

Seaplane Base Ownership and Management from official FAA records

Ownership: Privately-owned
Owner: KEVIN HACK
P.O. BOX 8660
KETCHIKAN, AK 99901
Phone 907-225-7906
Manager: KEVIN HACK
P.O. BOX 8660
KETCHIKAN, AK 99901
Phone 907-225-7906

Seaplane Base Operational Statistics

Aircraft based on the field: 3
Single engine airplanes: 3
    
Aircraft operations: avg 52/month *
95% air taxi
5% transient general aviation
* for 12-month period ending 31 December 2017

Additional Remarks

OPERS SUMMER; BOATS TIED AT FLOAT.
REEF & ISLANDS IN MIDDLE OF INLET.
PPR FOR GA ACFT LNDG.
STREAM CURRENT CAN AFFECT TAXIING TO FLOAT.

Instrument Procedures

There are no published instrument procedures at 78K.

Some nearby airports with instrument procedures:

PAKT - Ketchikan International Airport (34 nm S)
PAWG - Wrangell Airport (39 nm NW)
PAKW - Klawock Airport (48 nm SW)
PAPG - Petersburg James A Johnson Airport (65 nm NW)
PAFE - Kake Airport (94 nm NW)
 
Loc | Ops | Rwys | IFR | FBO | Links
Com | Nav | Svcs | Stats | Notes

Crowley
 
Area around 78K (Yes Bay Lodge Seaplane Base)
 
Road maps at: MapQuest Bing Google
 
Aerial photo
No photo
 
Sectional chart

 
Airport distance calculator
Flying to Yes Bay Lodge Seaplane Base? Find the distance to fly.

From to 78K

Sunrise and sunset
Times for 19-Sep-2020
 Local
(UTC-8)
 Zulu
(UTC)
Morning civil twilight05:5313:53
Sunrise06:3014:30
Sunset18:5102:51
Evening civil twilight19:2803:28

Current date and time
Zulu (UTC)  19-Sep-2020 15:41:44
Local (UTC-8)  19-Sep-2020 07:41:44
 
METAR
PAKT 
34nm S 
191453Z 31004KT 10SM -RA FEW003 BKN037 OVC060 13/13 A2987 RMK AO2 SLP115 HARBOR WND 32005KT P0001 60010 T01280128 53002
PAWG 
39nm NW 
191456Z 20006KT 10SM FEW003 OVC040 11/11 A2988 RMK AO2 SLP117 P0001 60005 T01110106 50003
PAKW 
47nm SW 
190553Z AUTO 21003KT 2 1/2SM -RA BR FEW006 BKN010 OVC017 13/12 A2986 RMK AO2 SLP112 P0004 60008 T01280122 10150 20128 52001 TSNO $
PAMM 
48nm S 
191502Z AUTO 00000KT 4SM HZ BKN008 BKN014 OVC019 A2988 RMK AO2 FZRANO $
TAF
PAKT 
34nm S 
181742Z 1818/1918 14006KT 6SM HZ VCSH SCT025 BKN045 OVC060 TEMPO 1818/1820 5SM BR HZ SCT003 BKN025 OVC060 FM190600 VRB04KT 6SM -RA BKN025 OVC050 AMD LTD TO CLD VIS AND WIND 1906/1915
PAWG 
39nm NW 
181742Z 1818/1918 VRB03KT 6SM HZ VCSH OVC050 FM182200 23003KT P6SM -RA OVC050 FM190500 14005KT 6SM -RA BR BKN025 OVC040 AMD LTD TO CLD VIS AND WIND 1906/1915
NOTAMs
Click for the latest NOTAMs
NOTAMs are issued by the DoD/FAA and will open in a separate window not controlled by AirNav.

 

 
 

Would you like to see your business listed on this page?

 If your business provides an interesting product or service to pilots, flight crews, aircraft, or users of the Yes Bay Lodge Seaplane Base, you should consider listing it here.  To start the listing process, click on the button below
 
Add a business
 

Other Pages about Yes Bay Lodge Seaplane Base

Update a link
 
Copyright © AirNav, LLC. All rights reserved. Privacy Policy  Contact